Bloomington, IN

9:02 AM EST on December 15, 2019 (GMT -0500)
Monroe County

Weather History for KBMG - August, 2019

Change the Weather History Date:

Thursday, August 1, 2019

  Actual Average Record
Temperature  
Mean Temperature 71 °F 74 °F  
Max Temperature 84 °F 84 °F 94 °F (2012)
Min Temperature 58 °F 63 °F 57 °F (1997)
Degree Days  
Heating Degree Days 0 0  
Month to date heating degree days 0 0  
Since 1 June heating degree days 14 17  
Since 1 July heating degree days 0 2  
Cooling Degree Days 6 9  
Month to date cooling degree days 6 9  
Year to date cooling degree days 713 575  
Since 1 June cooling degree days 582 493  
Growing Degree Days 20 (Base 50)    
Moisture  
Dew Point 63 °F    
Average Humidity 77    
Maximum Humidity 100    
Minimum Humidity 54    
Precipitation  
Precipitation 0.00 in 0.12 in 0.42 in (2016)
Month to date precipitation 0.00 0.12  
Year to date precipitation 32.04 29.79  
Sea Level Pressure  
Sea Level Pressure 30.10 in    
Wind  
Wind Speed 3 mph (NNW)    
Max Wind Speed 8 mph    
Max Gust Speed 12 mph    
Visibility 10 miles    
Events Rain    
T = Trace of Precipitation, MM = Missing Value Source: NWS Daily Summary

Daily Weather History Graph

Daily Weather History Graph

Search for Another Location

Airport or City:

Astronomy

Aug. 01, 2019 Rise Set
Actual Time 6:46 AM EDT 8:58 PM EDT
Civil Twilight 6:16 AM EDT 9:28 PM EDT
Nautical Twilight 5:40 AM EDT 10:04 PM EDT
Astronomical Twilight 5:00 AM EDT 10:44 PM EDT
Moon 7:10 AM EDT (8/1) 9:45 PM EDT (8/1)
Length of Visible Light 15h 11m
Length of Day
14h 11m
New Moon, 0% of the Moon is Illuminated
Aug 1
New Moon
Aug 7
First Quarter
Aug 15
Full
Aug 23
Last Quarter
Aug 30
New

Hourly Weather History & Observations

Time (EDT) Temp. Heat Index Dew Point Humidity Pressure Visibility Wind Dir Wind Speed Gust Speed Precip Events Conditions
12:53 AM 61.0 °F - 61.0 °F 100% 30.11 in 10.0 mi Calm Calm - N/A   Clear
1:53 AM 61.0 °F - 61.0 °F 100% 30.09 in 10.0 mi Calm Calm - N/A   Clear
2:53 AM 61.0 °F - 60.1 °F 97% 30.10 in 10.0 mi NNW 3.5 mph - N/A   Clear
3:53 AM 61.0 °F - 61.0 °F 100% 30.10 in 10.0 mi Calm Calm - N/A   Mostly Cloudy
4:53 AM 62.1 °F - 61.0 °F 96% 30.11 in 10.0 mi NNW 4.6 mph - N/A   Overcast
5:53 AM 61.0 °F - 61.0 °F 100% 30.10 in 10.0 mi Calm Calm - N/A   Scattered Clouds
6:53 AM 59.0 °F - 59.0 °F 100% 30.11 in 9.0 mi Calm Calm - N/A   Partly Cloudy
7:53 AM 63.0 °F - 61.0 °F 93% 30.12 in 10.0 mi North 3.5 mph - N/A   Scattered Clouds
8:53 AM 68.0 °F - 64.0 °F 87% 30.13 in 10.0 mi NNW 3.5 mph - 0.00 in Rain Light Rain
9:53 AM 73.9 °F - 64.0 °F 71% 30.14 in 10.0 mi NNE 5.8 mph - 0.00 in   Clear
10:53 AM 77.0 °F - 63.0 °F 62% 30.14 in 10.0 mi North 4.6 mph - N/A   Clear
11:53 AM 78.1 °F - 63.0 °F 60% 30.14 in 10.0 mi North 4.6 mph - N/A   Mostly Cloudy
12:53 PM 80.1 °F 81.7 °F 64.0 °F 58% 30.14 in 10.0 mi WNW 5.8 mph - N/A   Clear
1:53 PM 80.1 °F 81.5 °F 63.0 °F 56% 30.13 in 10.0 mi Calm Calm - N/A   Clear
2:53 PM 81.0 °F 82.5 °F 64.0 °F 56% 30.12 in 10.0 mi WSW 5.8 mph - 0.00 in Rain Light Rain
3:53 PM 80.1 °F 81.5 °F 63.0 °F 56% 30.10 in 10.0 mi NW 4.6 mph - 0.00 in   Scattered Clouds
4:53 PM 82.9 °F 84.4 °F 64.0 °F 53% 30.09 in 10.0 mi Calm Calm - N/A   Mostly Cloudy
5:53 PM 82.0 °F 83.4 °F 64.0 °F 54% 30.07 in 10.0 mi NW 6.9 mph - N/A   Partly Cloudy
6:53 PM 81.0 °F 81.9 °F 62.1 °F 52% 30.06 in 10.0 mi WNW 3.5 mph - N/A   Clear
7:53 PM 80.1 °F 81.5 °F 63.0 °F 56% 30.06 in 10.0 mi North 8.1 mph - N/A   Clear
8:53 PM 73.0 °F - 64.9 °F 76% 30.07 in 10.0 mi North 3.5 mph - N/A   Clear
9:53 PM 68.0 °F - 64.9 °F 90% 30.07 in 10.0 mi Calm Calm - N/A   Clear
10:53 PM 64.9 °F - 64.0 °F 97% 30.09 in 10.0 mi Calm Calm - N/A   Clear
11:53 PM 64.0 °F - 64.0 °F 100% 30.09 in 10.0 mi Calm Calm - N/A   Clear